Weather History for O'Neill, NE

Change the Weather History Date:

Monday, December 3, 2012

  Actual Average Record
Temperature  
Mean Temperature 44 °F -  
Max Temperature 58 °F 36 °F 67 °F (1956)
Min Temperature 30 °F 15 °F -2 °F (1991)
Degree Days  
Heating Degree Days 21    
Moisture  
Dew Point 28 °F    
Average Humidity 53    
Maximum Humidity 85    
Minimum Humidity 22    
Precipitation  
Precipitation 0.00 in - - ()
Sea Level Pressure  
Sea Level Pressure 29.82 in    
Wind  
Wind Speed 14 mph (West)    
Max Wind Speed 30 mph    
Max Gust Speed 43 mph    
Visibility 10 miles    
Events      
Averages and records for this station are not official NWS values.
T = Trace of Precipitation, MM = Missing Value Source: NWS Daily Summary

Daily Weather History Graph

Daily Weather History Graph

Search for Another Location

Airport:

Trip Planner

Search our weather history database for the weather conditions in past years. The results will help you decide how hot, cold, wet, or windy it might be!

Date:

Astronomy

Dec. 03, 2012 Rise Set
Actual Time 7:47 AM CST 5:02 PM CST
Civil Twilight 7:15 AM CST 5:33 PM CST
Nautical Twilight 6:40 AM CST 6:08 PM CST
Astronomical Twilight 6:06 AM CST 6:42 PM CST
Moon 9:53 PM CST (12/3) 11:08 AM CST (12/3)
Length of Visible Light 10h 18m
Length of Day
9h 14m
Waning Gibbous, 78% of the Moon is Illuminated
Dec 3
Waning Gibbous
Dec 6
Last Quarter
Dec 13
New
Dec 19
First Quarter
Dec 28
Full

Hourly Weather History & Observations

Time (CST) Temp. Windchill Dew Point Humidity Pressure Visibility Wind Dir Wind Speed Gust Speed Precip Events Conditions
12:15 AM 49.1 °F - 36.1 °F 61% 29.61 in 10.0 mi SSW 11.5 mph - N/A   Clear
12:35 AM 48.6 °F - 36.5 °F 63% 29.60 in 10.0 mi South 10.4 mph 19.6 mph N/A   Clear
12:55 AM 47.5 °F - 36.5 °F 66% 29.57 in 10.0 mi South 11.5 mph - N/A   Clear
1:15 AM 46.2 °F 41.2 °F 36.5 °F 69% 29.57 in 10.0 mi South 10.4 mph - N/A   Clear
1:35 AM 46.0 °F 40.6 °F 37.0 °F 71% 29.56 in 10.0 mi South 11.5 mph - N/A   Clear
1:55 AM 46.2 °F 41.2 °F 37.2 °F 71% 29.55 in 10.0 mi South 10.4 mph - N/A   Clear
2:15 AM 45.3 °F 40.1 °F 36.9 °F 72% 29.55 in 10.0 mi South 10.4 mph - N/A   Clear
2:35 AM 44.1 °F 39.0 °F 36.7 °F 75% 29.56 in 10.0 mi South 9.2 mph - N/A   Clear
2:55 AM 43.0 °F 38.2 °F 36.5 °F 78% 29.56 in 10.0 mi SSW 8.1 mph - N/A   Clear
3:15 AM 41.4 °F 36.8 °F 35.8 °F 81% 29.57 in 10.0 mi South 6.9 mph - N/A   Clear
3:35 AM 41.0 °F 34.3 °F 35.8 °F 82% 29.56 in 10.0 mi South 11.5 mph - N/A   Clear
3:55 AM 41.4 °F 35.7 °F 36.3 °F 82% 29.57 in 10.0 mi South 9.2 mph - N/A   Clear
4:15 AM 40.1 °F 34.1 °F 35.8 °F 85% 29.57 in 10.0 mi South 9.2 mph - N/A   Clear
4:35 AM 40.3 °F 33.4 °F 36.1 °F 85% 29.56 in 10.0 mi South 11.5 mph - N/A   Clear
4:55 AM 40.5 °F 34.1 °F 36.1 °F 85% 29.55 in 10.0 mi SSW 10.4 mph - N/A   Clear
5:15 AM 39.7 °F 34.3 °F 35.6 °F 85% 29.55 in 10.0 mi SSW 8.1 mph - N/A   Clear
5:35 AM 40.1 °F 33.6 °F 35.8 °F 85% 29.55 in 10.0 mi SSW 10.4 mph - N/A   Clear
5:55 AM 40.1 °F 35.3 °F 35.2 °F 83% 29.56 in 10.0 mi WSW 6.9 mph - N/A   Clear
6:15 AM 40.1 °F 34.1 °F 34.2 °F 79% 29.57 in 10.0 mi WSW 9.2 mph - N/A   Clear
6:35 AM 45.1 °F 39.1 °F 34.9 °F 67% 29.59 in 10.0 mi West 12.7 mph - N/A   Clear
7:15 AM 54.7 °F - 38.5 °F 54% 29.63 in 10.0 mi NW 24.2 mph 42.6 mph N/A   Clear
7:35 AM 53.8 °F - 38.5 °F 56% 29.66 in 10.0 mi NNW 28.8 mph 39.1 mph N/A   Clear
7:55 AM 53.4 °F - 38.3 °F 57% 29.67 in 10.0 mi NNW 23.0 mph 35.7 mph N/A   Clear
8:15 AM 53.1 °F - 38.3 °F 57% 29.69 in 10.0 mi NNW 27.6 mph 35.7 mph N/A   Clear
8:35 AM 53.2 °F - 37.9 °F 56% 29.71 in 10.0 mi NNW 23.0 mph 29.9 mph N/A   Clear
8:55 AM 53.1 °F - 36.3 °F 53% 29.72 in 10.0 mi NNW 26.5 mph 36.8 mph N/A   Clear
9:15 AM 53.2 °F - 36.1 °F 52% 29.75 in 10.0 mi NNW 28.8 mph 39.1 mph N/A   Clear
9:35 AM 53.2 °F - 36.5 °F 53% 29.77 in 10.0 mi NNW 25.3 mph 32.2 mph N/A   Clear
9:55 AM 53.6 °F - 37.4 °F 54% 29.79 in 10.0 mi NW 21.9 mph - N/A   Clear
10:15 AM 54.0 °F - 37.8 °F 54% 29.81 in 10.0 mi NNW 26.5 mph 32.2 mph N/A   Scattered Clouds
10:35 AM 53.8 °F - 37.2 °F 54% 29.82 in 10.0 mi NW 26.5 mph 33.4 mph N/A   Overcast
10:55 AM 53.6 °F - 36.5 °F 52% 29.83 in 10.0 mi NNW 21.9 mph 36.8 mph N/A   Mostly Cloudy
11:15 AM 53.6 °F - 36.3 °F 52% 29.84 in 10.0 mi NNW 29.9 mph 35.7 mph N/A   Scattered Clouds
11:35 AM 53.6 °F - 36.5 °F 52% 29.84 in 10.0 mi NW 19.6 mph 27.6 mph N/A   Clear
11:55 AM 54.1 °F - 33.8 °F 46% 29.84 in 10.0 mi NNW 24.2 mph 38.0 mph N/A   Clear
12:15 PM 55.8 °F - 32.2 °F 41% 29.84 in 10.0 mi NNW 27.6 mph 33.4 mph N/A   Clear
12:35 PM 57.2 °F - 27.0 °F 31% 29.85 in 10.0 mi NNW 24.2 mph 31.1 mph N/A   Clear
12:55 PM 57.2 °F - 24.8 °F 29% 29.86 in 10.0 mi NNW 25.3 mph 33.4 mph N/A   Clear
1:15 PM 57.6 °F - 23.4 °F 27% 29.86 in 10.0 mi NNW 24.2 mph 33.4 mph N/A   Clear
1:35 PM 58.1 °F - 25.3 °F 28% 29.88 in 10.0 mi NW 19.6 mph 28.8 mph N/A   Clear
1:55 PM 57.7 °F - 23.4 °F 27% 29.88 in 10.0 mi NW 23.0 mph 31.1 mph N/A   Clear
2:15 PM 57.6 °F - 21.6 °F 25% 29.89 in 10.0 mi NW 20.7 mph 32.2 mph N/A   Clear
2:35 PM 57.7 °F - 20.8 °F 24% 29.90 in 10.0 mi NW 19.6 mph 25.3 mph N/A   Clear
2:55 PM 57.2 °F - 18.5 °F 22% 29.92 in 10.0 mi NW 26.5 mph 29.9 mph N/A   Clear
3:15 PM 57.2 °F - 18.0 °F 22% 29.93 in 10.0 mi NW 19.6 mph 26.5 mph N/A   Clear
3:35 PM 56.3 °F - 18.0 °F 22% 29.95 in 10.0 mi NW 13.8 mph 25.3 mph N/A   Clear
3:55 PM 55.4 °F - 18.1 °F 23% 29.95 in 10.0 mi WNW 16.1 mph 24.2 mph N/A   Clear
4:15 PM 54.3 °F - 18.3 °F 24% 29.96 in 10.0 mi NW 12.7 mph - N/A   Clear
4:35 PM 52.7 °F - 17.6 °F 25% 29.98 in 10.0 mi WNW 9.2 mph - N/A   Clear
4:55 PM 50.5 °F - 17.6 °F 27% 29.98 in 10.0 mi NW 10.4 mph - N/A   Clear
5:15 PM 47.5 °F - 17.6 °F 30% 29.98 in 10.0 mi WNW 6.9 mph - N/A   Clear
5:35 PM 46.4 °F 42.4 °F 18.0 °F 32% 29.99 in 10.0 mi WNW 8.1 mph - N/A   Clear
5:55 PM 44.8 °F 41.6 °F 16.9 °F 33% 30.00 in 10.0 mi West 5.8 mph - N/A   Clear
6:15 PM 42.8 °F 39.3 °F 17.1 °F 36% 30.00 in 10.0 mi WNW 5.8 mph - N/A   Clear
6:35 PM 43.7 °F 39.1 °F 16.7 °F 34% 30.00 in 10.0 mi WNW 8.1 mph - N/A   Clear
6:55 PM 41.2 °F - 17.4 °F 38% 30.01 in 10.0 mi Calm Calm - N/A   Clear
7:15 PM 37.6 °F 34.0 °F 18.0 °F 45% 30.02 in 10.0 mi WSW 4.6 mph - N/A   Clear
7:35 PM 37.6 °F 33.1 °F 18.3 °F 46% 30.03 in 10.0 mi SSW 5.8 mph - N/A   Clear
7:55 PM 35.2 °F 31.2 °F 17.8 °F 49% 30.04 in 10.0 mi SW 4.6 mph - N/A   Clear
8:15 PM 30.2 °F 21.9 °F 17.8 °F 60% 30.04 in 10.0 mi SW 9.2 mph - N/A   Clear
8:35 PM 31.8 °F 23.9 °F 18.3 °F 57% 30.05 in 10.0 mi SW 9.2 mph - N/A   Clear
8:55 PM 36.1 °F 28.7 °F 19.2 °F 50% 30.05 in 10.0 mi WSW 10.4 mph - N/A   Clear
9:15 PM 36.7 °F 32.0 °F 19.0 °F 49% 30.06 in 10.0 mi SW 5.8 mph - N/A   Clear
9:35 PM 33.6 °F 28.4 °F 18.9 °F 55% 30.07 in 10.0 mi WSW 5.8 mph - N/A   Clear
9:55 PM 33.6 °F 30.6 °F 19.2 °F 56% 30.07 in 10.0 mi SW 3.5 mph - N/A   Clear
10:15 PM 34.5 °F 30.4 °F 19.2 °F 54% 30.07 in 10.0 mi WSW 4.6 mph - N/A   Clear
10:35 PM 33.4 °F 29.1 °F 19.0 °F 56% 30.09 in 10.0 mi SSW 4.6 mph - N/A   Clear
10:55 PM 31.6 °F 26.0 °F 19.0 °F 60% 30.08 in 10.0 mi WSW 5.8 mph - N/A   Clear
11:15 PM 33.6 °F 28.4 °F 19.4 °F 56% 30.09 in 10.0 mi WSW 5.8 mph - N/A   Clear
11:35 PM 34.0 °F 27.2 °F 18.9 °F 54% 30.09 in 10.0 mi SW 8.1 mph - N/A   Clear
11:55 PM 30.6 °F 23.8 °F 18.3 °F 60% 30.10 in 10.0 mi WSW 6.9 mph - N/A   Clear